User: anonymous   Login
Location: Chilton Park
(37.7711°N, 100.0276°W)
Time: 12:28:35
(UTC+00:00)
Language:

Cosmos 2227 Rocket - Orbit

View from above orbital plane
View from above orbital plane
View from above satellite
View from above satellite

Ground track
Ground track

The orbit data is extracted from the following two-line orbital elements,

1 22285U 92093B   22142.86279942  .00000102  00000-0  77330-4 0  9997
2 22285  71.0241  34.6912 0006482 265.0803  94.9580 14.15088954516940
Epoch (UTC): 22 May 2022 20:42:25
Eccentricity: 0.0006482
inclination: 71.0241°
perigee height: 837 km
apogee height: 846 km
right ascension of ascending node: 34.6912°
argument of perigee: 265.0803°
revolutions per day: 14.15088954
mean anomaly at epoch: 94.9580°
orbit number at epoch: 51694

The dashed part of the orbit path shows where the satellite is in the earth's shadow,  

DLR